Time,TemperatureF,DewpointF,PressureIn,WindDirection,WindDirectionDegrees,WindSpeedMPH,WindSpeedGustMPH,Humidity,HourlyPrecipIn,Conditions,Clouds,dailyrainin,SolarRadiationWatts/m^2,SoftwareType,DateUTC
2013-06-28 00:02:00,67.7,38.3,30.09,ESE,111,0.0,2.0,34,0.00,,,0.00,0,LWC V2.00 B727,2013-06-28 06:02:00,
2013-06-28 00:07:00,67.8,38.4,30.09,ESE,106,0.0,1.0,34,0.00,,,0.00,0,LWC V2.00 B727,2013-06-28 06:07:00,
2013-06-28 00:12:00,67.9,38.5,30.09,ESE,107,0.0,0.0,34,0.00,,,0.00,0,LWC V2.00 B727,2013-06-28 06:12:00,
2013-06-28 00:17:00,67.9,39.2,30.09,ESE,108,0.0,0.0,35,0.00,,,0.00,0,LWC V2.00 B727,2013-06-28 06:17:00,
2013-06-28 00:22:00,67.9,39.2,30.09,ESE,108,0.0,0.0,35,0.00,,,0.00,0,LWC V2.00 B727,2013-06-28 06:22:00,
2013-06-28 00:27:00,67.8,39.9,30.10,ESE,108,1.0,1.0,36,0.00,,,0.00,0,LWC V2.00 B727,2013-06-28 06:27:00,
2013-06-28 00:32:00,67.5,38.1,30.10,East,86,1.0,3.0,34,0.00,,,0.00,0,LWC V2.00 B727,2013-06-28 06:32:00,
2013-06-28 00:37:00,67.5,38.1,30.11,East,101,0.0,2.0,34,0.00,,,0.00,0,LWC V2.00 B727,2013-06-28 06:37:00,
2013-06-28 00:42:00,68.2,37.2,30.12,East,88,2.0,7.0,32,0.00,,,0.00,0,LWC V2.00 B727,2013-06-28 06:42:00,
2013-06-28 00:47:00,69.7,37.7,30.12,SE,130,2.0,9.0,31,0.00,,,0.00,0,LWC V2.00 B727,2013-06-28 06:47:00,
2013-06-28 00:52:00,70.5,38.4,30.12,East,95,2.0,10.0,31,0.00,,,0.00,0,LWC V2.00 B727,2013-06-28 06:52:00,
2013-06-28 00:57:00,70.8,38.7,30.12,ENE,76,4.0,8.0,31,0.00,,,0.00,0,LWC V2.00 B727,2013-06-28 06:57:00,
2013-06-28 01:02:00,71.0,39.6,30.12,ESE,121,2.0,6.0,32,0.00,,,0.00,0,LWC V2.00 B727,2013-06-28 07:02:00,
2013-06-28 01:07:00,70.8,40.3,30.12,East,87,1.0,1.0,33,0.00,,,0.00,0,LWC V2.00 B727,2013-06-28 07:07:00,
2013-06-28 01:12:00,70.4,40.7,30.11,East,79,0.0,3.0,34,0.00,,,0.00,0,LWC V2.00 B727,2013-06-28 07:12:00,
2013-06-28 01:17:00,70.1,41.2,30.11,East,79,0.0,0.0,35,0.00,,,0.00,0,LWC V2.00 B727,2013-06-28 07:17:00,
2013-06-28 01:22:00,69.7,41.5,30.11,ENE,78,0.0,0.0,36,0.00,,,0.00,0,LWC V2.00 B727,2013-06-28 07:22:00,
2013-06-28 01:27:00,69.2,41.8,30.11,ENE,78,0.0,0.0,37,0.00,,,0.00,0,LWC V2.00 B727,2013-06-28 07:27:00,
2013-06-28 01:32:00,68.6,42.6,30.12,ENE,64,0.0,1.0,39,0.00,,,0.00,0,LWC V2.00 B727,2013-06-28 07:32:00,
2013-06-28 01:37:00,68.0,42.8,30.11,ENE,64,2.0,3.0,40,0.00,,,0.00,0,LWC V2.00 B727,2013-06-28 07:37:00,
2013-06-28 01:42:00,67.4,42.9,30.11,NE,55,0.0,3.0,41,0.00,,,0.00,0,LWC V2.00 B727,2013-06-28 07:42:00,
2013-06-28 01:47:00,67.1,43.2,30.11,ENE,59,0.0,1.0,42,0.00,,,0.00,0,LWC V2.00 B727,2013-06-28 07:47:00,
2013-06-28 01:52:00,66.9,44.3,30.11,NE,47,2.0,5.0,44,0.00,,,0.00,0,LWC V2.00 B727,2013-06-28 07:52:00,
2013-06-28 01:57:00,67.0,45.0,30.10,NE,51,0.0,3.0,45,0.00,,,0.00,0,LWC V2.00 B727,2013-06-28 07:57:00,
2013-06-28 02:02:00,67.0,45.0,30.10,ENE,65,3.0,5.0,45,0.00,,,0.00,0,LWC V2.00 B727,2013-06-28 08:02:00,
2013-06-28 02:07:00,67.2,45.1,30.10,NNE,28,2.0,4.0,45,0.00,,,0.00,0,LWC V2.00 B727,2013-06-28 08:07:00,
2013-06-28 02:12:00,67.4,45.3,30.10,ENE,78,1.0,7.0,45,0.00,,,0.00,0,LWC V2.00 B727,2013-06-28 08:12:00,
2013-06-28 02:17:00,67.6,45.5,30.10,NE,52,4.0,6.0,45,0.00,,,0.00,0,LWC V2.00 B727,2013-06-28 08:17:00,
2013-06-28 02:22:00,67.7,45.0,30.10,ENE,57,0.0,7.0,44,0.00,,,0.00,0,LWC V2.00 B727,2013-06-28 08:22:00,
2013-06-28 02:27:00,67.7,45.0,30.10,ENE,61,0.0,4.0,44,0.00,,,0.00,0,LWC V2.00 B727,2013-06-28 08:27:00,
2013-06-28 02:32:00,67.6,44.9,30.10,NE,55,2.0,4.0,44,0.00,,,0.00,0,LWC V2.00 B727,2013-06-28 08:32:00,
2013-06-28 02:37:00,67.5,45.4,30.10,NE,38,2.0,3.0,45,0.00,,,0.00,0,LWC V2.00 B727,2013-06-28 08:37:00,
2013-06-28 02:42:00,67.5,45.4,30.10,ENE,65,2.0,5.0,45,0.00,,,0.00,0,LWC V2.00 B727,2013-06-28 08:42:00,
2013-06-28 02:47:00,67.7,45.6,30.10,NNE,29,4.0,8.0,45,0.00,,,0.00,0,LWC V2.00 B727,2013-06-28 08:47:00,
2013-06-28 02:52:00,67.8,45.7,30.09,NE,48,2.0,7.0,45,0.00,,,0.00,0,LWC V2.00 B727,2013-06-28 08:52:00,
2013-06-28 02:57:00,68.0,45.9,30.10,NNE,25,7.0,9.0,45,0.00,,,0.00,0,LWC V2.00 B727,2013-06-28 08:57:00,
2013-06-28 03:02:00,68.1,45.9,30.10,NE,36,6.0,14.0,45,0.00,,,0.00,0,LWC V2.00 B727,2013-06-28 09:02:00,
2013-06-28 03:07:00,68.1,45.9,30.09,NE,38,8.0,12.0,45,0.00,,,0.00,0,LWC V2.00 B727,2013-06-28 09:07:00,
2013-06-28 03:12:00,68.1,45.9,30.09,NE,51,3.0,8.0,45,0.00,,,0.00,0,LWC V2.00 B727,2013-06-28 09:12:00,
2013-06-28 03:17:00,68.1,46.5,30.09,NE,48,5.0,5.0,46,0.00,,,0.00,0,LWC V2.00 B727,2013-06-28 09:17:00,
2013-06-28 03:22:00,68.0,46.4,30.09,East,86,2.0,6.0,46,0.00,,,0.00,0,LWC V2.00 B727,2013-06-28 09:22:00,
2013-06-28 03:27:00,67.8,46.3,30.09,NE,41,3.0,8.0,46,0.00,,,0.00,0,LWC V2.00 B727,2013-06-28 09:27:00,
2013-06-28 03:32:00,67.6,46.1,30.09,NE,46,4.0,6.0,46,0.00,,,0.00,0,LWC V2.00 B727,2013-06-28 09:32:00,
2013-06-28 03:37:00,67.5,46.6,30.10,ESE,113,7.0,11.0,47,0.00,,,0.00,0,LWC V2.00 B727,2013-06-28 09:37:00,
2013-06-28 03:42:00,67.6,46.6,30.10,NE,51,5.0,8.0,47,0.00,,,0.00,0,LWC V2.00 B727,2013-06-28 09:42:00,
2013-06-28 03:47:00,67.6,46.6,30.09,ENE,65,4.0,9.0,47,0.00,,,0.00,0,LWC V2.00 B727,2013-06-28 09:47:00,
2013-06-28 03:52:00,67.7,47.3,30.09,East,101,2.0,8.0,48,0.00,,,0.00,0,LWC V2.00 B727,2013-06-28 09:52:00,
2013-06-28 03:57:00,67.6,47.2,30.10,NNE,22,6.0,8.0,48,0.00,,,0.00,0,LWC V2.00 B727,2013-06-28 09:57:00,
2013-06-28 04:02:00,67.6,47.2,30.10,ENE,66,7.0,8.0,48,0.00,,,0.00,0,LWC V2.00 B727,2013-06-28 10:02:00,
2013-06-28 04:07:00,67.5,47.7,30.10,ENE,64,11.0,16.0,49,0.00,,,0.00,0,LWC V2.00 B727,2013-06-28 10:07:00,
2013-06-28 04:12:00,67.6,47.8,30.10,ENE,67,11.0,15.0,49,0.00,,,0.00,0,LWC V2.00 B727,2013-06-28 10:12:00,
2013-06-28 04:17:00,67.5,48.2,30.10,NE,34,4.0,10.0,50,0.00,,,0.00,0,LWC V2.00 B727,2013-06-28 10:17:00,
2013-06-28 04:22:00,67.4,48.1,30.10,NE,54,5.0,12.0,50,0.00,,,0.00,0,LWC V2.00 B727,2013-06-28 10:22:00,
2013-06-28 04:27:00,67.3,48.0,30.10,NNW,336,9.0,9.0,50,0.00,,,0.00,0,LWC V2.00 B727,2013-06-28 10:27:00,
2013-06-28 04:32:00,67.2,48.5,30.09,ENE,71,7.0,11.0,51,0.00,,,0.00,0,LWC V2.00 B727,2013-06-28 10:32:00,
2013-06-28 04:37:00,67.0,48.3,30.10,NE,48,3.0,8.0,51,0.00,,,0.00,0,LWC V2.00 B727,2013-06-28 10:37:00,
2013-06-28 04:42:00,66.9,48.2,30.09,ENE,64,7.0,15.0,51,0.00,,,0.00,0,LWC V2.00 B727,2013-06-28 10:42:00,
2013-06-28 04:47:00,66.8,48.1,30.10,ENE,71,5.0,8.0,51,0.00,,,0.00,0,LWC V2.00 B727,2013-06-28 10:47:00,
2013-06-28 04:52:00,66.8,48.1,30.10,ESE,103,0.0,5.0,51,0.00,,,0.00,0,LWC V2.00 B727,2013-06-28 10:52:00,
2013-06-28 04:57:00,66.6,48.4,30.10,East,93,2.0,6.0,52,0.00,,,0.00,0,LWC V2.00 B727,2013-06-28 10:57:00,
2013-06-28 05:02:00,66.4,48.2,30.09,East,81,1.0,2.0,52,0.00,,,0.00,0,LWC V2.00 B727,2013-06-28 11:02:00,
2013-06-28 05:07:00,66.1,48.0,30.09,ESE,121,1.0,5.0,52,0.00,,,0.00,0,LWC V2.00 B727,2013-06-28 11:07:00,
2013-06-28 05:12:00,65.7,48.1,30.09,ESE,102,0.0,1.0,53,0.00,,,0.00,0,LWC V2.00 B727,2013-06-28 11:12:00,
2013-06-28 05:17:00,65.4,47.8,30.09,ENE,78,2.0,2.0,53,0.00,,,0.00,0,LWC V2.00 B727,2013-06-28 11:17:00,
2013-06-28 05:22:00,65.2,47.6,30.09,ENE,76,1.0,4.0,53,0.00,,,0.00,0,LWC V2.00 B727,2013-06-28 11:22:00,
2013-06-28 05:28:00,65.2,47.6,30.09,ENE,64,0.0,3.0,53,0.00,,,0.00,0,LWC V2.00 B727,2013-06-28 11:28:00,
2013-06-28 05:33:00,65.2,47.6,30.09,ENE,74,1.0,7.0,53,0.00,,,0.00,0,LWC V2.00 B727,2013-06-28 11:33:00,
2013-06-28 05:38:00,65.0,47.4,30.09,ENE,71,4.0,4.0,53,0.00,,,0.00,0,LWC V2.00 B727,2013-06-28 11:38:00,
2013-06-28 05:43:00,65.0,47.4,30.10,ENE,57,0.0,1.0,53,0.00,,,0.00,0,LWC V2.00 B727,2013-06-28 11:43:00,
2013-06-28 05:48:00,64.9,47.4,30.10,NE,48,0.0,1.0,53,0.00,,,0.00,0,LWC V2.00 B727,2013-06-28 11:48:00,
2013-06-28 05:53:00,64.7,47.2,30.10,NE,48,0.0,4.0,53,0.00,,,0.00,0,LWC V2.00 B727,2013-06-28 11:53:00,
2013-06-28 05:58:00,64.4,47.4,30.10,NE,44,3.0,5.0,54,0.00,,,0.00,0,LWC V2.00 B727,2013-06-28 11:58:00,
2013-06-28 06:03:00,64.5,47.5,30.10,ENE,69,3.0,4.0,54,0.00,,,0.00,5,LWC V2.00 B727,2013-06-28 12:03:00,
2013-06-28 06:08:00,64.5,47.5,30.11,ENE,72,1.0,4.0,54,0.00,,,0.00,7,LWC V2.00 B727,2013-06-28 12:08:00,
2013-06-28 06:13:00,64.6,47.6,30.11,ENE,74,0.0,3.0,54,0.00,,,0.00,9,LWC V2.00 B727,2013-06-28 12:13:00,
2013-06-28 06:18:00,64.7,47.2,30.11,ENE,68,0.0,3.0,53,0.00,,,0.00,12,LWC V2.00 B727,2013-06-28 12:18:00,
2013-06-28 06:23:00,64.7,47.7,30.11,ENE,68,2.0,2.0,54,0.00,,,0.00,16,LWC V2.00 B727,2013-06-28 12:23:00,
2013-06-28 06:28:00,64.5,47.0,30.11,ENE,68,0.0,3.0,53,0.00,,,0.00,21,LWC V2.00 B727,2013-06-28 12:28:00,
2013-06-28 06:33:00,64.5,47.0,30.11,ENE,59,2.0,4.0,53,0.00,,,0.00,25,LWC V2.00 B727,2013-06-28 12:33:00,
2013-06-28 06:38:00,64.3,47.3,30.11,NE,46,2.0,3.0,54,0.00,,,0.00,26,LWC V2.00 B727,2013-06-28 12:38:00,
2013-06-28 06:43:00,64.2,47.2,30.11,NE,51,2.0,4.0,54,0.00,,,0.00,30,LWC V2.00 B727,2013-06-28 12:43:00,
2013-06-28 06:48:00,64.1,47.6,30.11,NE,53,0.0,3.0,55,0.00,,,0.00,33,LWC V2.00 B727,2013-06-28 12:48:00,
2013-06-28 06:53:00,63.9,48.4,30.11,NE,53,0.0,0.0,57,0.00,,,0.00,40,LWC V2.00 B727,2013-06-28 12:53:00,
2013-06-28 06:58:00,63.7,48.2,30.11,NE,54,0.0,1.0,57,0.00,,,0.00,47,LWC V2.00 B727,2013-06-28 12:58:00,
2013-06-28 07:03:00,63.4,47.9,30.11,NE,54,0.0,0.0,57,0.00,,,0.00,60,LWC V2.00 B727,2013-06-28 13:03:00,
2013-06-28 07:08:00,63.2,48.2,30.11,NE,53,0.0,0.0,58,0.00,,,0.00,74,LWC V2.00 B727,2013-06-28 13:08:00,
2013-06-28 07:13:00,63.1,48.5,30.11,NE,54,0.0,0.0,59,0.00,,,0.00,91,LWC V2.00 B727,2013-06-28 13:13:00,
2013-06-28 07:18:00,62.9,47.4,30.12,NE,54,0.0,0.0,57,0.00,,,0.00,104,LWC V2.00 B727,2013-06-28 13:18:00,
2013-06-28 07:23:00,62.8,48.3,30.12,NE,53,0.0,0.0,59,0.00,,,0.00,114,LWC V2.00 B727,2013-06-28 13:23:00,
2013-06-28 07:28:00,62.7,48.2,30.12,NE,54,0.0,0.0,59,0.00,,,0.00,120,LWC V2.00 B727,2013-06-28 13:28:00,
2013-06-28 07:33:00,62.7,48.2,30.12,NE,55,0.0,0.0,59,0.00,,,0.00,127,LWC V2.00 B727,2013-06-28 13:33:00,
2013-06-28 07:38:00,62.8,47.8,30.12,NE,55,0.0,0.0,58,0.00,,,0.00,132,LWC V2.00 B727,2013-06-28 13:38:00,
2013-06-28 07:43:00,62.9,47.9,30.12,NE,55,0.0,0.0,58,0.00,,,0.00,134,LWC V2.00 B727,2013-06-28 13:43:00,
2013-06-28 07:48:00,63.1,49.0,30.12,NE,55,0.0,0.0,60,0.00,,,0.00,132,LWC V2.00 B727,2013-06-28 13:48:00,
2013-06-28 07:53:00,63.3,47.8,30.12,NE,54,1.0,2.0,57,0.00,,,0.00,125,LWC V2.00 B727,2013-06-28 13:53:00,
2013-06-28 07:58:00,63.6,49.0,30.13,NE,55,0.0,3.0,59,0.00,,,0.00,127,LWC V2.00 B727,2013-06-28 13:58:00,
2013-06-28 08:03:00,64.1,47.6,30.13,WSW,246,0.0,7.0,55,0.00,,,0.00,151,LWC V2.00 B727,2013-06-28 14:03:00,
2013-06-28 08:08:00,64.5,48.0,30.13,WSW,246,0.0,1.0,55,0.00,,,0.00,167,LWC V2.00 B727,2013-06-28 14:08:00,
2013-06-28 08:13:00,65.6,45.9,30.13,SW,227,4.0,7.0,49,0.00,,,0.00,183,LWC V2.00 B727,2013-06-28 14:13:00,
2013-06-28 08:18:00,66.5,45.6,30.13,SW,216,1.0,5.0,47,0.00,,,0.00,209,LWC V2.00 B727,2013-06-28 14:18:00,
2013-06-28 08:23:00,67.0,45.5,30.13,WSW,248,1.0,7.0,46,0.00,,,0.00,244,LWC V2.00 B727,2013-06-28 14:23:00,
2013-06-28 08:28:00,67.4,50.2,30.14,SW,236,0.0,1.0,54,0.00,,,0.00,216,LWC V2.00 B727,2013-06-28 14:28:00,
2013-06-28 08:33:00,67.6,45.5,30.14,SSW,206,2.0,5.0,45,0.00,,,0.00,232,LWC V2.00 B727,2013-06-28 14:33:00,
2013-06-28 08:38:00,67.9,46.3,30.14,WSW,238,0.0,2.0,46,0.00,,,0.00,221,LWC V2.00 B727,2013-06-28 14:38:00,
2013-06-28 08:43:00,68.2,47.8,30.14,SW,236,0.0,3.0,48,0.00,,,0.00,220,LWC V2.00 B727,2013-06-28 14:43:00,
2013-06-28 08:48:00,68.4,46.2,30.14,SW,233,0.0,4.0,45,0.00,,,0.00,214,LWC V2.00 B727,2013-06-28 14:48:00,
2013-06-28 08:53:00,68.6,47.6,30.14,SW,233,0.0,1.0,47,0.00,,,0.00,202,LWC V2.00 B727,2013-06-28 14:53:00,
2013-06-28 08:58:00,68.8,48.3,30.14,SW,233,0.0,0.0,48,0.00,,,0.00,211,LWC V2.00 B727,2013-06-28 14:58:00,
2013-06-28 09:03:00,68.9,48.4,30.14,SW,233,0.0,0.0,48,0.00,,,0.00,209,LWC V2.00 B727,2013-06-28 15:03:00,
2013-06-28 09:08:00,69.1,49.7,30.14,SW,233,0.0,0.0,50,0.00,,,0.00,202,LWC V2.00 B727,2013-06-28 15:08:00,
2013-06-28 09:13:00,69.2,49.8,30.14,SW,233,0.0,0.0,50,0.00,,,0.00,206,LWC V2.00 B727,2013-06-28 15:13:00,
2013-06-28 09:18:00,69.3,50.4,30.14,SW,233,0.0,0.0,51,0.00,,,0.00,225,LWC V2.00 B727,2013-06-28 15:18:00,
2013-06-28 09:23:00,69.4,49.4,30.14,SW,233,0.0,0.0,49,0.00,,,0.00,251,LWC V2.00 B727,2013-06-28 15:23:00,
2013-06-28 09:28:00,69.5,49.5,30.13,SW,233,0.0,0.0,49,0.00,,,0.00,255,LWC V2.00 B727,2013-06-28 15:28:00,
2013-06-28 09:33:00,69.6,49.0,30.13,SW,233,0.0,0.0,48,0.00,,,0.00,227,LWC V2.00 B727,2013-06-28 15:33:00,
2013-06-28 09:38:00,69.9,50.9,30.13,SW,233,0.0,0.0,51,0.00,,,0.00,220,LWC V2.00 B727,2013-06-28 15:38:00,
2013-06-28 09:43:00,70.1,51.1,30.12,SW,233,0.0,1.0,51,0.00,,,0.00,214,LWC V2.00 B727,2013-06-28 15:43:00,
2013-06-28 09:48:00,70.2,49.0,30.12,SW,233,0.0,0.0,47,0.00,,,0.00,223,LWC V2.00 B727,2013-06-28 15:48:00,
2013-06-28 09:53:00,70.3,49.1,30.12,SW,233,0.0,0.0,47,0.00,,,0.00,257,LWC V2.00 B727,2013-06-28 15:53:00,
2013-06-28 09:56:00,70.4,49.2,30.12,SW,233,0.0,0.0,47,0.00,,,0.00,281,LWC V2.00 B727,2013-06-28 15:56:00,
2013-06-28 10:01:00,70.6,48.8,30.12,SW,233,0.0,0.0,46,0.00,,,0.00,306,LWC V2.00 B727,2013-06-28 16:01:00,
2013-06-28 10:06:00,70.8,47.2,30.12,SW,233,0.0,0.0,43,0.00,,,0.00,327,LWC V2.00 B727,2013-06-28 16:06:00,
2013-06-28 10:11:00,71.2,48.8,30.12,SW,233,1.0,3.0,45,0.00,,,0.00,316,LWC V2.00 B727,2013-06-28 16:11:00,
2013-06-28 10:16:00,71.6,50.3,30.12,SW,232,0.0,0.0,47,0.00,,,0.00,309,LWC V2.00 B727,2013-06-28 16:16:00,
2013-06-28 10:21:00,71.9,48.8,30.12,SW,232,0.0,0.0,44,0.00,,,0.00,316,LWC V2.00 B727,2013-06-28 16:21:00,
2013-06-28 10:26:00,72.2,50.3,30.12,SW,232,0.0,0.0,46,0.00,,,0.00,343,LWC V2.00 B727,2013-06-28 16:26:00,
2013-06-28 10:31:00,72.4,49.2,30.12,WNW,300,0.0,2.0,44,0.00,,,0.00,431,LWC V2.00 B727,2013-06-28 16:31:00,
2013-06-28 10:36:00,72.8,48.4,30.12,NW,317,2.0,3.0,42,0.00,,,0.00,610,LWC V2.00 B727,2013-06-28 16:36:00,
2013-06-28 10:41:00,73.1,49.3,30.12,NNW,336,0.0,3.0,43,0.00,,,0.00,668,LWC V2.00 B727,2013-06-28 16:41:00,
2013-06-28 10:46:00,73.6,48.4,30.12,North,0,0.0,2.0,41,0.00,,,0.00,740,LWC V2.00 B727,2013-06-28 16:46:00,
2013-06-28 10:51:00,74.1,48.2,30.12,North,350,2.0,3.0,40,0.00,,,0.00,751,LWC V2.00 B727,2013-06-28 16:51:00,
2013-06-28 10:56:00,74.7,49.4,30.12,NW,318,2.0,4.0,41,0.00,,,0.00,902,LWC V2.00 B727,2013-06-28 16:56:00,
2013-06-28 11:01:00,75.4,50.0,30.12,NNE,14,1.0,2.0,41,0.00,,,0.00,895,LWC V2.00 B727,2013-06-28 17:01:00,
2013-06-28 11:06:00,76.5,49.7,30.12,SSW,212,0.0,3.0,39,0.00,,,0.00,761,LWC V2.00 B727,2013-06-28 17:06:00,
2013-06-28 11:11:00,77.4,51.2,30.12,SSW,210,0.0,3.0,40,0.00,,,0.00,490,LWC V2.00 B727,2013-06-28 17:11:00,
2013-06-28 11:16:00,78.1,49.7,30.12,West,260,2.0,4.0,37,0.00,,,0.00,461,LWC V2.00 B727,2013-06-28 17:16:00,
2013-06-28 11:21:00,78.7,50.2,30.12,ESE,118,2.0,5.0,37,0.00,,,0.00,893,LWC V2.00 B727,2013-06-28 17:21:00,
2013-06-28 11:26:00,79.6,51.0,30.12,SW,232,0.0,1.0,37,0.00,,,0.00,923,LWC V2.00 B727,2013-06-28 17:26:00,
2013-06-28 11:31:00,80.4,52.4,30.12,NW,306,3.0,4.0,38,0.00,,,0.00,925,LWC V2.00 B727,2013-06-28 17:31:00,
2013-06-28 11:36:00,81.3,50.2,30.11,NW,321,0.0,1.0,34,0.00,,,0.00,925,LWC V2.00 B727,2013-06-28 17:36:00,
2013-06-28 11:41:00,82.0,50.0,30.11,North,355,5.0,8.0,33,0.00,,,0.00,947,LWC V2.00 B727,2013-06-28 17:41:00,
2013-06-28 11:46:00,82.3,50.3,30.12,NNE,27,1.0,5.0,33,0.00,,,0.00,399,LWC V2.00 B727,2013-06-28 17:46:00,
2013-06-28 11:51:00,82.0,48.4,30.11,SW,218,4.0,4.0,31,0.00,,,0.00,438,LWC V2.00 B727,2013-06-28 17:51:00,
2013-06-28 11:56:00,81.5,48.8,30.11,SW,232,7.0,7.0,32,0.00,,,0.00,575,LWC V2.00 B727,2013-06-28 17:56:00,
2013-06-28 12:01:00,81.4,50.3,30.11,SW,219,0.0,4.0,34,0.00,,,0.00,594,LWC V2.00 B727,2013-06-28 18:01:00,
2013-06-28 12:06:00,83.0,52.5,30.10,WSW,237,2.0,6.0,35,0.00,,,0.00,1028,LWC V2.00 B727,2013-06-28 18:06:00,
2013-06-28 12:11:00,84.7,50.7,30.10,SW,215,2.0,4.0,31,0.00,,,0.00,979,LWC V2.00 B727,2013-06-28 18:11:00,
2013-06-28 12:16:00,85.6,51.5,30.10,WSW,240,1.0,5.0,31,0.00,,,0.00,976,LWC V2.00 B727,2013-06-28 18:16:00,
2013-06-28 12:21:00,85.7,51.5,30.10,NNE,15,3.0,5.0,31,0.00,,,0.00,972,LWC V2.00 B727,2013-06-28 18:21:00,
2013-06-28 12:26:00,85.8,50.7,30.09,NNW,338,0.0,3.0,30,0.00,,,0.00,988,LWC V2.00 B727,2013-06-28 18:26:00,
2013-06-28 12:31:00,86.1,51.0,30.09,West,267,3.0,3.0,30,0.00,,,0.00,979,LWC V2.00 B727,2013-06-28 18:31:00,
2013-06-28 12:36:00,86.5,51.3,30.08,SSW,198,2.0,6.0,30,0.00,,,0.00,979,LWC V2.00 B727,2013-06-28 18:36:00,
2013-06-28 12:41:00,86.6,51.4,30.08,NNE,26,2.0,3.0,30,0.00,,,0.00,1032,LWC V2.00 B727,2013-06-28 18:41:00,
2013-06-28 12:46:00,86.6,51.4,30.08,SSW,205,4.0,7.0,30,0.00,,,0.00,1053,LWC V2.00 B727,2013-06-28 18:46:00,
2013-06-28 12:51:00,86.4,51.3,30.07,NNE,23,3.0,4.0,30,0.00,,,0.00,350,LWC V2.00 B727,2013-06-28 18:51:00,
2013-06-28 12:56:00,85.6,49.7,30.08,NE,35,2.0,5.0,29,0.00,,,0.00,559,LWC V2.00 B727,2013-06-28 18:56:00,
2013-06-28 13:01:00,84.9,50.0,30.08,WSW,240,2.0,6.0,30,0.00,,,0.00,394,LWC V2.00 B727,2013-06-28 19:01:00,
2013-06-28 13:06:00,84.1,50.2,30.08,NW,317,4.0,5.0,31,0.00,,,0.00,378,LWC V2.00 B727,2013-06-28 19:06:00,
2013-06-28 13:11:00,83.5,48.8,30.07,NNE,20,1.0,4.0,30,0.00,,,0.00,610,LWC V2.00 B727,2013-06-28 19:11:00,
2013-06-28 13:16:00,83.5,49.6,30.06,North,355,2.0,6.0,31,0.00,,,0.00,979,LWC V2.00 B727,2013-06-28 19:16:00,
2013-06-28 13:21:00,84.3,50.3,30.06,North,5,3.0,8.0,31,0.00,,,0.00,1053,LWC V2.00 B727,2013-06-28 19:21:00,
2013-06-28 13:26:00,85.3,51.2,30.06,WNW,295,3.0,5.0,31,0.00,,,0.00,1007,LWC V2.00 B727,2013-06-28 19:26:00,
2013-06-28 13:31:00,86.7,51.5,30.05,NE,34,4.0,7.0,30,0.00,,,0.00,1120,LWC V2.00 B727,2013-06-28 19:31:00,
2013-06-28 13:36:00,87.2,50.1,30.05,NNE,12,0.0,10.0,28,0.00,,,0.00,1083,LWC V2.00 B727,2013-06-28 19:36:00,
2013-06-28 13:41:00,86.9,49.8,30.06,North,0,3.0,7.0,28,0.00,,,0.00,575,LWC V2.00 B727,2013-06-28 19:41:00,
2013-06-28 13:46:00,86.2,50.2,30.05,NNE,26,2.0,4.0,29,0.00,,,0.00,422,LWC V2.00 B727,2013-06-28 19:46:00,
2013-06-28 13:51:00,85.7,48.8,30.05,NE,38,3.0,5.0,28,0.00,,,0.00,401,LWC V2.00 B727,2013-06-28 19:51:00,
2013-06-28 13:56:00,85.3,47.5,30.05,SSW,200,3.0,7.0,27,0.00,,,0.00,490,LWC V2.00 B727,2013-06-28 19:56:00,
2013-06-28 14:01:00,85.1,51.0,30.06,South,179,1.0,1.0,31,0.00,,,0.00,179,LWC V2.00 B727,2013-06-28 20:01:00,
2013-06-28 14:06:00,84.3,47.6,30.07,NNE,32,6.0,9.0,28,0.00,,,0.00,142,LWC V2.00 B727,2013-06-28 20:06:00,
2013-06-28 14:11:00,82.0,46.6,30.06,NNE,28,6.0,7.0,29,0.00,,,0.00,102,LWC V2.00 B727,2013-06-28 20:11:00,
2013-06-28 14:16:00,80.0,45.8,30.07,East,86,1.0,5.0,30,0.00,,,0.00,63,LWC V2.00 B727,2013-06-28 20:16:00,
2013-06-28 14:21:00,77.7,44.6,30.07,ENE,78,1.0,5.0,31,0.00,,,0.00,40,LWC V2.00 B727,2013-06-28 20:21:00,
2013-06-28 14:26:00,75.6,44.5,30.07,SSE,148,4.0,9.0,33,0.00,,,0.00,37,LWC V2.00 B727,2013-06-28 20:26:00,
2013-06-28 14:31:00,74.1,45.4,30.08,SSE,156,4.0,9.0,36,0.00,,,0.00,33,LWC V2.00 B727,2013-06-28 20:31:00,
2013-06-28 14:36:00,72.1,47.7,30.08,NE,37,2.0,6.0,42,0.00,,,0.00,37,LWC V2.00 B727,2013-06-28 20:36:00,
2013-06-28 14:41:00,70.2,50.7,30.09,East,83,1.0,3.0,50,0.00,,,0.00,42,LWC V2.00 B727,2013-06-28 20:41:00,
2013-06-28 14:46:00,67.8,49.5,30.09,SSE,149,4.0,5.0,52,0.00,,,0.00,53,LWC V2.00 B727,2013-06-28 20:46:00,
2013-06-28 14:51:00,65.7,49.6,30.08,SSE,153,5.0,8.0,56,0.00,,,0.00,76,LWC V2.00 B727,2013-06-28 20:51:00,
2013-06-28 14:56:00,63.8,50.5,30.08,SSE,148,5.0,7.0,62,0.00,,,0.00,102,LWC V2.00 B727,2013-06-28 20:56:00,
2013-06-28 15:01:00,62.6,51.5,30.08,ESE,123,1.0,8.0,67,0.00,,,0.00,134,LWC V2.00 B727,2013-06-28 21:01:00,
2013-06-28 15:06:00,61.8,51.9,30.09,SE,126,2.0,9.0,70,0.00,,,0.00,169,LWC V2.00 B727,2013-06-28 21:06:00,
2013-06-28 15:11:00,61.5,51.2,30.09,SE,145,3.0,8.0,69,0.00,,,0.00,188,LWC V2.00 B727,2013-06-28 21:11:00,
2013-06-28 15:16:00,62.2,49.9,30.09,ESE,115,7.0,13.0,64,0.00,,,0.00,200,LWC V2.00 B727,2013-06-28 21:16:00,
2013-06-28 15:21:00,62.9,48.8,30.09,SE,141,5.0,11.0,60,0.00,,,0.00,200,LWC V2.00 B727,2013-06-28 21:21:00,
2013-06-28 15:26:00,64.0,48.9,30.09,SSE,163,4.0,8.0,58,0.00,,,0.00,200,LWC V2.00 B727,2013-06-28 21:26:00,
2013-06-28 15:31:00,64.2,50.0,30.09,SSE,153,4.0,12.0,60,0.00,,,0.00,272,LWC V2.00 B727,2013-06-28 21:31:00,
2013-06-28 15:36:00,64.2,50.5,30.10,South,175,4.0,8.0,61,0.00,,,0.00,343,LWC V2.00 B727,2013-06-28 21:36:00,
2013-06-28 15:41:00,65.1,49.5,30.10,SSE,152,4.0,7.0,57,0.00,,,0.00,420,LWC V2.00 B727,2013-06-28 21:41:00,
2013-06-28 15:46:00,66.5,47.8,30.10,South,176,5.0,7.0,51,0.00,,,0.00,418,LWC V2.00 B727,2013-06-28 21:46:00,
2013-06-28 15:51:00,67.9,48.0,30.11,SSE,159,3.0,9.0,49,0.00,,,0.00,420,LWC V2.00 B727,2013-06-28 21:51:00,
2013-06-28 15:56:00,68.6,49.7,30.11,SSE,159,4.0,8.0,51,0.00,,,0.00,482,LWC V2.00 B727,2013-06-28 21:56:00,
2013-06-28 16:01:00,70.1,49.5,30.11,ESE,107,4.0,12.0,48,0.00,,,0.00,700,LWC V2.00 B727,2013-06-28 22:01:00,
2013-06-28 16:06:00,71.3,48.8,30.11,SSE,159,7.0,13.0,45,0.00,,,0.00,768,LWC V2.00 B727,2013-06-28 22:06:00,
2013-06-28 16:11:00,72.3,49.2,30.10,ESE,113,1.0,9.0,44,0.00,,,0.00,773,LWC V2.00 B727,2013-06-28 22:11:00,
2013-06-28 16:16:00,72.7,48.3,30.10,SE,134,4.0,9.0,42,0.00,,,0.00,431,LWC V2.00 B727,2013-06-28 22:16:00,
2013-06-28 16:21:00,72.3,47.3,30.11,SSE,168,6.0,10.0,41,0.00,,,0.00,325,LWC V2.00 B727,2013-06-28 22:21:00,
2013-06-28 16:26:00,71.8,46.8,30.11,SSW,192,0.0,8.0,41,0.00,,,0.00,302,LWC V2.00 B727,2013-06-28 22:26:00,
2013-06-28 16:31:00,71.6,46.6,30.11,SE,131,5.0,14.0,41,0.00,,,0.00,299,LWC V2.00 B727,2013-06-28 22:31:00,
2013-06-28 16:36:00,71.4,47.1,30.13,North,11,7.0,7.0,42,0.00,,,0.00,271,LWC V2.00 B727,2013-06-28 22:36:00,
2013-06-28 16:41:00,71.4,47.7,30.14,East,100,0.0,6.0,43,0.00,,,0.00,237,LWC V2.00 B727,2013-06-28 22:41:00,
2013-06-28 16:46:00,71.3,47.0,30.14,NE,56,2.0,4.0,42,0.00,,,0.00,200,LWC V2.00 B727,2013-06-28 22:46:00,
2013-06-28 16:51:00,71.3,45.7,30.14,East,92,0.0,5.0,40,0.00,,,0.00,163,LWC V2.00 B727,2013-06-28 22:51:00,
2013-06-28 16:56:00,71.3,46.4,30.14,SE,131,0.0,1.0,41,0.00,,,0.00,151,LWC V2.00 B727,2013-06-28 22:56:00,
2013-06-28 17:01:00,71.3,47.6,30.14,ESE,119,2.0,2.0,43,0.00,,,0.00,121,LWC V2.00 B727,2013-06-28 23:01:00,
2013-06-28 17:06:00,71.1,47.5,30.15,ESE,119,1.0,2.0,43,0.00,,,0.00,77,LWC V2.00 B727,2013-06-28 23:06:00,
2013-06-28 17:11:00,70.9,45.4,30.15,ENE,59,1.0,3.0,40,0.00,,,0.00,63,LWC V2.00 B727,2013-06-28 23:11:00,
2013-06-28 17:16:00,70.8,46.6,30.15,NNE,25,3.0,4.0,42,0.00,,,0.00,58,LWC V2.00 B727,2013-06-28 23:16:00,
2013-06-28 17:21:00,70.8,45.3,30.15,NE,43,0.0,2.0,40,0.00,,,0.00,53,LWC V2.00 B727,2013-06-28 23:21:00,
2013-06-28 17:26:00,70.7,45.8,30.15,NE,44,1.0,2.0,41,0.00,,,0.00,54,LWC V2.00 B727,2013-06-28 23:26:00,
2013-06-28 17:31:00,70.5,46.3,30.15,SSE,159,2.0,4.0,42,0.00,,,0.00,60,LWC V2.00 B727,2013-06-28 23:31:00,
2013-06-28 17:36:00,70.1,46.6,30.16,SSE,159,3.0,3.0,43,0.00,,,0.00,70,LWC V2.00 B727,2013-06-28 23:36:00,
2013-06-28 17:41:00,69.9,45.8,30.16,SSE,159,1.0,3.0,42,0.00,,,0.00,81,LWC V2.00 B727,2013-06-28 23:41:00,
2013-06-28 17:46:00,69.9,44.5,30.17,WSW,245,3.0,5.0,40,0.00,,,0.00,81,LWC V2.00 B727,2013-06-28 23:46:00,
2013-06-28 17:51:00,70.2,44.7,30.17,South,186,4.0,7.0,40,0.00,,,0.00,90,LWC V2.00 B727,2013-06-28 23:51:00,
2013-06-28 17:56:00,70.6,45.1,30.17,WSW,243,7.0,13.0,40,0.00,,,0.00,83,LWC V2.00 B727,2013-06-28 23:56:00,
2013-06-28 18:01:00,70.5,45.0,30.18,WSW,242,6.0,9.0,40,0.00,,,0.00,69,LWC V2.00 B727,2013-06-29 00:01:00,
2013-06-28 18:06:00,70.1,45.3,30.17,SSW,213,8.0,10.0,41,0.00,,,0.00,47,LWC V2.00 B727,2013-06-29 00:06:00,
2013-06-28 18:11:00,69.6,45.5,30.16,South,188,7.0,16.0,42,0.00,,,0.00,49,LWC V2.00 B727,2013-06-29 00:11:00,
2013-06-28 18:16:00,69.0,44.9,30.14,WSW,245,9.0,14.0,42,0.00,,,0.00,60,LWC V2.00 B727,2013-06-29 00:16:00,
2013-06-28 18:21:00,68.6,44.6,30.13,SSW,202,6.0,11.0,42,0.00,,,0.00,58,LWC V2.00 B727,2013-06-29 00:21:00,
2013-06-28 18:26:00,68.3,44.9,30.12,SSW,213,6.0,15.0,43,0.00,,,0.00,56,LWC V2.00 B727,2013-06-29 00:26:00,
2013-06-28 18:31:00,67.9,45.2,30.12,SSW,203,8.0,13.0,44,0.00,,,0.00,53,LWC V2.00 B727,2013-06-29 00:31:00,
2013-06-28 18:36:00,67.6,45.5,30.13,SSW,213,10.0,18.0,45,0.00,,,0.00,49,LWC V2.00 B727,2013-06-29 00:36:00,
2013-06-28 18:41:00,67.2,45.7,30.14,SW,229,6.0,11.0,46,0.00,,,0.00,47,LWC V2.00 B727,2013-06-29 00:41:00,
2013-06-28 18:46:00,66.9,46.0,30.13,SW,225,6.0,10.0,47,0.00,,,0.00,44,LWC V2.00 B727,2013-06-29 00:46:00,
2013-06-28 18:51:00,66.5,46.2,30.12,SSW,207,4.0,10.0,48,0.00,,,0.00,42,LWC V2.00 B727,2013-06-29 00:51:00,
2013-06-28 18:56:00,66.3,46.6,30.13,South,182,4.0,8.0,49,0.00,,,0.00,42,LWC V2.00 B727,2013-06-29 00:56:00,
2013-06-28 19:01:00,66.1,45.8,30.12,SSE,166,5.0,14.0,48,0.00,,,0.00,46,LWC V2.00 B727,2013-06-29 01:01:00,
2013-06-28 19:06:00,66.1,45.8,30.12,South,178,0.0,5.0,48,0.00,,,0.00,53,LWC V2.00 B727,2013-06-29 01:06:00,
2013-06-28 19:11:00,66.0,45.7,30.12,SSW,196,0.0,4.0,48,0.00,,,0.00,58,LWC V2.00 B727,2013-06-29 01:11:00,
2013-06-28 19:16:00,66.0,46.3,30.12,South,187,0.0,0.0,49,0.00,,,0.00,58,LWC V2.00 B727,2013-06-29 01:16:00,
2013-06-28 19:21:00,66.0,47.3,30.12,South,187,1.0,3.0,51,0.00,,,0.00,56,LWC V2.00 B727,2013-06-29 01:21:00,
2013-06-28 19:26:00,65.9,47.3,30.12,ENE,71,1.0,3.0,51,0.00,,,0.00,53,LWC V2.00 B727,2013-06-29 01:26:00,
2013-06-28 19:31:00,65.7,46.5,30.13,ENE,71,1.0,2.0,50,0.00,,,0.00,46,LWC V2.00 B727,2013-06-29 01:31:00,
2013-06-28 19:36:00,65.6,45.9,30.13,ENE,71,0.0,2.0,49,0.00,,,0.00,39,LWC V2.00 B727,2013-06-29 01:36:00,
2013-06-28 19:41:00,65.5,46.9,30.13,ENE,71,0.0,2.0,51,0.00,,,0.00,30,LWC V2.00 B727,2013-06-29 01:41:00,
2013-06-28 19:46:00,65.3,47.2,30.14,ENE,71,1.0,2.0,52,0.00,,,0.00,26,LWC V2.00 B727,2013-06-29 01:46:00,
2013-06-28 19:51:00,65.1,46.5,30.14,ENE,71,0.0,2.0,51,0.00,,,0.00,23,LWC V2.00 B727,2013-06-29 01:51:00,
2013-06-28 19:56:00,64.9,46.3,30.14,ENE,71,0.0,1.0,51,0.00,,,0.00,19,LWC V2.00 B727,2013-06-29 01:56:00,
2013-06-28 20:01:00,64.8,46.2,30.14,ENE,71,0.0,0.0,51,0.00,,,0.00,16,LWC V2.00 B727,2013-06-29 02:01:00,
2013-06-28 20:06:00,64.7,46.7,30.14,ENE,71,0.0,0.0,52,0.00,,,0.00,12,LWC V2.00 B727,2013-06-29 02:06:00,
2013-06-28 20:11:00,64.5,47.0,30.14,ENE,71,0.0,0.0,53,0.00,,,0.00,7,LWC V2.00 B727,2013-06-29 02:11:00,
2013-06-28 20:16:00,64.0,46.5,30.14,ENE,71,0.0,0.0,53,0.00,,,0.00,0,LWC V2.00 B727,2013-06-29 02:16:00,
2013-06-28 20:21:00,63.6,46.6,30.14,ENE,71,0.0,0.0,54,0.00,,,0.00,0,LWC V2.00 B727,2013-06-29 02:21:00,
2013-06-28 20:26:00,63.1,46.7,30.14,East,101,0.0,0.0,55,0.00,,,0.00,0,LWC V2.00 B727,2013-06-29 02:26:00,
2013-06-28 20:31:00,62.7,47.2,30.14,East,101,0.0,1.0,57,0.00,,,0.00,0,LWC V2.00 B727,2013-06-29 02:31:00,
2013-06-28 20:36:00,62.3,46.9,30.14,ESE,102,0.0,1.0,57,0.00,,,0.00,0,LWC V2.00 B727,2013-06-29 02:36:00,
2013-06-28 20:41:00,61.8,46.4,30.14,SSE,163,2.0,3.0,57,0.00,,,0.00,0,LWC V2.00 B727,2013-06-29 02:41:00,
2013-06-28 20:46:00,61.6,46.7,30.14,SSE,161,0.0,5.0,58,0.00,,,0.00,0,LWC V2.00 B727,2013-06-29 02:46:00,
2013-06-28 20:51:00,61.6,46.7,30.14,SSE,151,3.0,3.0,58,0.00,,,0.00,0,LWC V2.00 B727,2013-06-29 02:51:00,
2013-06-28 20:56:00,61.6,46.7,30.14,ESE,123,0.0,2.0,58,0.00,,,0.00,0,LWC V2.00 B727,2013-06-29 02:56:00,
2013-06-28 21:01:00,61.4,46.5,30.14,SE,124,2.0,2.0,58,0.00,,,0.00,0,LWC V2.00 B727,2013-06-29 03:01:00,
2013-06-28 21:06:00,61.2,46.8,30.14,SE,140,1.0,3.0,59,0.00,,,0.00,0,LWC V2.00 B727,2013-06-29 03:06:00,
2013-06-28 21:11:00,61.1,46.7,30.14,ESE,121,0.0,2.0,59,0.00,,,0.00,0,LWC V2.00 B727,2013-06-29 03:11:00,
2013-06-28 21:16:00,60.9,46.0,30.15,ESE,122,0.0,3.0,58,0.00,,,0.00,0,LWC V2.00 B727,2013-06-29 03:16:00,
2013-06-28 21:21:00,61.2,45.4,30.15,SSE,164,3.0,4.0,56,0.00,,,0.00,0,LWC V2.00 B727,2013-06-29 03:21:00,
2013-06-28 21:26:00,61.8,45.5,30.15,SSE,157,0.0,4.0,55,0.00,,,0.00,0,LWC V2.00 B727,2013-06-29 03:26:00,
2013-06-28 21:31:00,61.8,45.5,30.15,SSE,157,0.0,1.0,55,0.00,,,0.00,0,LWC V2.00 B727,2013-06-29 03:31:00,
2013-06-28 21:36:00,61.6,44.8,30.15,South,190,2.0,5.0,54,0.00,,,0.00,0,LWC V2.00 B727,2013-06-29 03:36:00,
2013-06-28 21:41:00,61.3,45.0,30.15,South,173,1.0,3.0,55,0.00,,,0.00,0,LWC V2.00 B727,2013-06-29 03:41:00,
2013-06-28 21:46:00,61.0,45.2,30.16,SSE,165,0.0,1.0,56,0.00,,,0.00,0,LWC V2.00 B727,2013-06-29 03:46:00,
2013-06-28 21:51:00,60.7,44.9,30.16,SSE,165,0.0,0.0,56,0.00,,,0.00,0,LWC V2.00 B727,2013-06-29 03:51:00,
2013-06-28 21:56:00,60.4,44.6,30.16,SSE,165,1.0,2.0,56,0.00,,,0.00,0,LWC V2.00 B727,2013-06-29 03:56:00,
2013-06-28 22:01:00,60.0,44.3,30.15,SSE,165,1.0,2.0,56,0.00,,,0.00,0,LWC V2.00 B727,2013-06-29 04:01:00,
2013-06-28 22:06:00,59.8,44.5,30.16,SSE,165,0.0,0.0,57,0.00,,,0.00,0,LWC V2.00 B727,2013-06-29 04:06:00,
2013-06-28 22:11:00,59.6,44.3,30.16,SE,144,1.0,2.0,57,0.00,,,0.00,0,LWC V2.00 B727,2013-06-29 04:11:00,
2013-06-28 22:16:00,59.7,43.5,30.16,SSE,162,2.0,5.0,55,0.00,,,0.00,0,LWC V2.00 B727,2013-06-29 04:16:00,
2013-06-28 22:21:00,60.0,43.8,30.16,South,184,4.0,6.0,55,0.00,,,0.00,0,LWC V2.00 B727,2013-06-29 04:21:00,
2013-06-28 22:26:00,60.2,43.5,30.16,SSE,151,1.0,3.0,54,0.00,,,0.00,0,LWC V2.00 B727,2013-06-29 04:26:00,
2013-06-28 22:31:00,59.8,43.6,30.16,SSE,152,0.0,3.0,55,0.00,,,0.00,0,LWC V2.00 B727,2013-06-29 04:31:00,
2013-06-28 22:36:00,59.4,43.2,30.16,SSE,164,0.0,2.0,55,0.00,,,0.00,0,LWC V2.00 B727,2013-06-29 04:36:00,
2013-06-28 22:41:00,59.0,43.3,30.16,SSE,164,0.0,0.0,56,0.00,,,0.00,0,LWC V2.00 B727,2013-06-29 04:41:00,
2013-06-28 22:46:00,58.7,43.0,30.17,SSE,164,3.0,3.0,56,0.00,,,0.00,0,LWC V2.00 B727,2013-06-29 04:46:00,
2013-06-28 22:51:00,58.1,42.9,30.17,South,184,0.0,0.0,57,0.00,,,0.00,0,LWC V2.00 B727,2013-06-29 04:51:00,
2013-06-28 22:56:00,57.9,42.3,30.17,South,184,0.0,0.0,56,0.00,,,0.00,0,LWC V2.00 B727,2013-06-29 04:56:00,
2013-06-28 23:01:00,57.7,42.1,30.17,South,184,0.0,0.0,56,0.00,,,0.00,0,LWC V2.00 B727,2013-06-29 05:01:00,
2013-06-28 23:06:00,57.3,42.7,30.17,South,183,0.0,0.0,58,0.00,,,0.00,0,LWC V2.00 B727,2013-06-29 05:06:00,
2013-06-28 23:11:00,56.9,42.7,30.18,SE,134,1.0,1.0,59,0.00,,,0.00,0,LWC V2.00 B727,2013-06-29 05:11:00,
2013-06-28 23:16:00,56.6,42.4,30.18,SSE,149,2.0,4.0,59,0.00,,,0.00,0,LWC V2.00 B727,2013-06-29 05:16:00,
2013-06-28 23:21:00,56.4,42.3,30.18,SSE,153,2.0,3.0,59,0.00,,,0.00,0,LWC V2.00 B727,2013-06-29 05:21:00,
2013-06-28 23:26:00,56.3,42.2,30.18,South,187,2.0,2.0,59,0.00,,,0.00,0,LWC V2.00 B727,2013-06-29 05:26:00,
2013-06-28 23:31:00,56.2,42.1,30.17,South,187,2.0,4.0,59,0.00,,,0.00,0,LWC V2.00 B727,2013-06-29 05:31:00,
2013-06-28 23:36:00,56.1,42.0,30.17,South,186,2.0,4.0,59,0.00,,,0.00,0,LWC V2.00 B727,2013-06-29 05:36:00,
2013-06-28 23:41:00,56.1,42.0,30.17,South,183,0.0,1.0,59,0.00,,,0.00,0,LWC V2.00 B727,2013-06-29 05:41:00,
2013-06-28 23:46:00,56.0,41.9,30.17,South,183,0.0,2.0,59,0.00,,,0.00,0,LWC V2.00 B727,2013-06-29 05:46:00,
2013-06-28 23:51:00,56.0,41.9,30.17,South,169,1.0,3.0,59,0.00,,,0.00,0,LWC V2.00 B727,2013-06-29 05:51:00,
2013-06-28 23:56:00,55.9,41.8,30.17,South,169,0.0,0.0,59,0.00,,,0.00,0,LWC V2.00 B727,2013-06-29 05:56:00,